Probability
19 19 13 10 13 6 13 10 13 19 23 19 19 19 13 13 13 13 10 13 13 13 10 10 10 6 10 6 0 3 3 3 6 3 6 13 19 13 13 16 13 6 3
16 16 16 13 3 6 13 16 13 10 13 13 16 19 13 13 13 10 13 13 13 10 10 6 3 6 10 3 3 0 3 10 6 10 13 6 13 13 10 10 10 3 0
13 13 16 10 6 6 6 10 10 10 6 6 6 13 10 10 13 13 13 10 6 6 10 3 0 3 6 6 3 3 10 3 10 10 10 6 10 13 6 6 6 6 3
13 13 16 10 10 10 10 10 10 10 10 6 6 10 10 6 10 10 10 10 10 6 10 6 6 3 3 10 3 10 10 6 10 10 6 6 10 13 13 10 10 6 3
10 6 10 13 13 10 13 13 10 10 10 10 10 6 10 6 6 10 13 10 10 6 6 3 0 0 0 0 0 6 3 10 6 3 6 6 6 6 10 3 6 6 6
10 3 3 10 10 13 16 23 16 13 10 13 10 10 6 0 0 0 3 6 6 3 6 0 0 0 0 0 0 0 0 0 3 10 6 6 10 10 13 3 6 6 0
13 10 6 6 6 13 10 19 23 13 13 16 16 16 16 0 0 0 0 6 6 10 10 10 3 0 0 0 0 0 0 0 0 0 3 6 0 3 6 3 10 10 0
13 13 13 13 13 23 13 13 26 16 13 16 16 13 13 3 0 0 0 3 10 10 13 10 10 6 0 0 0 0 3 3 0 0 0 3 3 3 6 6 10 10 10
10 16 13 13 16 19 16 23 23 19 23 13 10 10 13 6 0 0 0 6 13 10 10 6 6 10 0 0 0 0 0 3 0 0 0 0 0 0 0 0 3 6 3
16 13 16 13 13 19 19 16 13 16 13 10 10 10 10 10 0 0 0 6 13 10 16 13 0 0 0 0 0 3 3 6 0 0 0 0 0 0 0 3 6 6 3
16 16 13 19 19 19 16 23 19 16 16 16 13 13 13 6 0 0 0 10 6 6 3 3 0 0 0 0 0 3 3 0 3 0 0 0 0 3 3 3 0 3 3
19 16 19 26 23 6 16 16 16 19 16 16 16 13 19 10 0 0 0 0 0 10 3 6 3 0 0 0 0 0 0 0 0 0 0 0 3 0 3 3 0 3 3
19 19 26 26 26 23 23 16 13 16 10 10 10 13 10 6 0 0 0 0 0 0 6 0 0 0 0 0 0 0 0 0 0 0 0 0 3 0 0 0 0 3 0
19 19 23 26 26 26 26 10 13 13 10 13 10 3 3 3 0 3 0 0 0 0 0 0 0 0 0 0 0 0 0 0 0 0 0 0 0 0 0 0 0 0 0
19 19 19 16 13 16 13 13 10 13 10 10 6 3 3 3 0 0 0 0 3 0 0 3 0 0 0 0 0 0 0 0 0 3 0 0 0 0 0 0 6 0 0
19 19 16 10 10 10 13 6 0 0 0 0 0 0 0 0 0 0 0 0 0 0 0 0 0 0 0 0 0 0 0 0 3 0 0 0 0 0 0 0 0 0 0
19 19 16 6 6 6 13 10 6 0 0 0 0 0 0 0 0 0 0 0 0 0 0 0 0 0 0 0 0 0 3 0 0 0 0 0 0 0 0 0 0 0 0
19 6 6 13 10 6 6 6 10 10 6 0 0 0 0 0 0 0 0 0 0 0 0 0 0 0 0 0 0 0 0 0 0 0 0 0 0 0 0 0 0 0 0
6 3 6 6 10 3 3 3 6 6 3 3 3 0 0 0 0 0 0 0 0 0 0 0 0 0 0 0 0 0 0 0 0 0 0 0 0 0 0 0 0 0 0
10 0 0 10 6 10 6 6 10 10 10 10 6 6 0 0 0 0 0 0 0 0 0 0 0 0 0 0 0 0 0 0 0 0 0 0 0 0 0 0 0 0 0
6 0 0 3 10 13 13 13 13 13 6 6 3 3 3 3 3 3 0 0 0 0 0 0 0 0 0 0 0 0 0 0 0 0 0 0 0 0 0 0 0 0 0
6 6 3 3 6 10 10 10 13 10 3 6 6 3 0 3 3 3 3 3 3 0 0 0 0 0 0 0 0 0 0 0 0 0 0 0 0 0 0 0 0 0 0
6 6 6 6 6 3 3 6 3 6 10 10 3 3 3 6 6 6 3 3 6 3 0 0 0 0 0 0 0 0 0 0 0 0 0 0 0 0 0 0 0 0 0
6 6 6 6 6 6 6 3 3 3 3 0 3 6 6 10 6 3 3 3 3 0 0 0 0 0 0 0 0 0 0 0 0 0 0 0 0 0 0 0 0 0 0
6 6 6 6 6 6 3 3 3 0 0 0 0 0 0 3 3 3 0 0 0 0 0 0 0 0 0 0 0 0 0 0 0 0 0 0 0 0 0 0 0 0 0
6 6 3 3 3 3 0 0 0 0 0 0 0 0 0 0 3 3 0 0 0 0 0 0 0 0 0 0 0 0 0 0 0 0 0 0 0 0 0 0 0 0 0
Height
5804 5804 5803 5803 5803 5803 5802 5802 5801 5800 5800 5799 5799 5798 5798 5797 5797 5796 5796 5795 5795 5794 5794 5794 5794 5793 5793 5793 5792 5792 5792 5792 5792 5792 5791 5791 5791 5791 5790 5789 5788 5788 5787
5801 5801 5800 5800 5799 5799 5798 5798 5798 5797 5796 5795 5795 5794 5794 5793 5793 5792 5792 5791 5791 5791 5790 5790 5789 5789 5789 5789 5788 5788 5788 5787 5787 5787 5787 5787 5786 5786 5785 5785 5783 5782 5782
5798 5797 5797 5796 5796 5795 5795 5794 5794 5793 5792 5791 5791 5790 5790 5789 5789 5789 5788 5788 5788 5787 5787 5786 5786 5785 5785 5784 5784 5784 5783 5783 5783 5783 5782 5782 5782 5781 5781 5780 5778 5777 5776
5794 5794 5793 5793 5793 5792 5791 5791 5790 5789 5788 5787 5787 5786 5786 5785 5785 5785 5785 5785 5784 5784 5783 5782 5782 5781 5781 5780 5780 5779 5779 5779 5778 5778 5778 5777 5777 5776 5776 5775 5774 5772 5771
5791 5790 5790 5790 5789 5789 5788 5787 5786 5786 5785 5784 5783 5782 5782 5782 5782 5782 5781 5781 5781 5780 5779 5779 5778 5778 5777 5776 5776 5775 5775 5774 5774 5773 5773 5772 5772 5771 5771 5770 5769 5768 5766
5787 5787 5787 5786 5786 5785 5785 5784 5783 5782 5781 5780 5780 5779 5779 5779 5779 5778 5778 5777 5777 5776 5775 5775 5774 5773 5773 5772 5772 5771 5771 5770 5769 5768 5768 5767 5767 5766 5766 5765 5764 5763 5762
5784 5784 5784 5783 5782 5782 5781 5781 5780 5779 5779 5778 5777 5776 5776 5776 5775 5775 5774 5774 5773 5772 5771 5771 5770 5769 5769 5768 5767 5767 5766 5765 5765 5764 5763 5763 5762 5762 5761 5760 5759 5758 5757
5781 5780 5780 5780 5779 5779 5778 5778 5777 5777 5776 5775 5774 5774 5773 5773 5772 5772 5771 5770 5769 5768 5767 5767 5766 5765 5765 5764 5763 5763 5762 5761 5760 5759 5758 5758 5757 5757 5756 5756 5755 5753 5752
5777 5777 5777 5776 5776 5775 5775 5774 5774 5773 5773 5772 5772 5771 5770 5770 5769 5768 5767 5766 5765 5765 5764 5763 5762 5762 5761 5760 5759 5759 5758 5757 5755 5754 5754 5753 5752 5752 5751 5750 5749 5748 5746
5774 5773 5773 5773 5772 5772 5771 5771 5771 5770 5770 5769 5768 5768 5767 5766 5765 5765 5764 5763 5762 5761 5760 5759 5759 5758 5757 5756 5755 5754 5753 5752 5751 5750 5749 5749 5748 5747 5746 5745 5744 5743 5741
5770 5769 5769 5769 5768 5768 5767 5767 5767 5767 5766 5766 5765 5764 5763 5762 5762 5761 5760 5759 5758 5757 5756 5756 5755 5754 5753 5752 5751 5750 5749 5748 5746 5746 5745 5744 5743 5742 5741 5740 5739 5737 5735
5765 5765 5765 5765 5764 5764 5764 5764 5763 5763 5763 5762 5761 5760 5760 5759 5758 5757 5757 5756 5755 5754 5753 5752 5751 5750 5750 5749 5748 5746 5745 5744 5742 5741 5741 5740 5739 5738 5736 5735 5734 5732 5730
5761 5761 5760 5760 5760 5760 5760 5760 5759 5759 5759 5758 5757 5756 5756 5755 5754 5753 5753 5752 5751 5750 5750 5749 5748 5747 5746 5745 5744 5742 5741 5739 5738 5737 5736 5735 5734 5733 5732 5731 5729 5727 5725
5756 5756 5756 5756 5756 5756 5755 5755 5755 5755 5754 5754 5753 5752 5751 5751 5750 5749 5749 5748 5748 5747 5746 5745 5744 5743 5742 5741 5739 5738 5736 5735 5733 5732 5731 5730 5729 5728 5727 5725 5724 5722 5720
5750 5750 5750 5750 5751 5751 5751 5751 5751 5750 5750 5749 5749 5748 5747 5746 5746 5745 5745 5744 5744 5743 5742 5741 5740 5739 5738 5736 5735 5733 5732 5730 5729 5727 5726 5725 5724 5723 5722 5720 5718 5716 5714
5745 5745 5745 5745 5745 5745 5745 5745 5745 5745 5745 5744 5744 5743 5742 5742 5741 5741 5741 5740 5740 5739 5738 5737 5735 5734 5733 5731 5730 5728 5727 5725 5724 5722 5721 5720 5719 5718 5717 5715 5713 5711 5709
5739 5739 5739 5739 5739 5739 5739 5739 5739 5739 5739 5739 5738 5738 5737 5737 5737 5736 5736 5736 5735 5734 5733 5732 5730 5729 5728 5726 5725 5723 5722 5721 5719 5718 5716 5715 5714 5713 5711 5709 5707 5705 5703
5732 5732 5732 5732 5733 5733 5733 5733 5733 5733 5733 5733 5732 5732 5732 5731 5731 5731 5730 5730 5729 5728 5727 5726 5725 5724 5722 5721 5720 5718 5717 5716 5714 5713 5712 5710 5709 5707 5706 5704 5702 5699 5697
5724 5725 5725 5726 5726 5726 5727 5727 5727 5727 5726 5726 5726 5726 5725 5725 5725 5725 5724 5724 5723 5723 5722 5721 5720 5718 5717 5716 5715 5713 5712 5711 5709 5708 5707 5705 5704 5702 5701 5698 5696 5694 5692
5717 5717 5718 5718 5719 5719 5720 5720 5720 5720 5720 5720 5720 5720 5719 5719 5719 5719 5719 5718 5718 5717 5716 5715 5714 5713 5711 5710 5709 5708 5707 5705 5704 5703 5702 5700 5698 5697 5695 5693 5691 5689 5686
5709 5709 5710 5711 5711 5712 5712 5713 5713 5713 5713 5714 5713 5713 5713 5713 5713 5713 5713 5712 5712 5711 5710 5709 5708 5707 5706 5705 5704 5702 5701 5700 5699 5698 5697 5695 5694 5692 5690 5688 5686 5683 5681
5701 5701 5702 5703 5704 5705 5705 5706 5706 5706 5707 5707 5707 5707 5707 5707 5707 5707 5706 5706 5705 5705 5704 5703 5702 5701 5701 5700 5699 5697 5696 5695 5694 5693 5692 5691 5689 5687 5685 5683 5681 5678 5675
5692 5693 5694 5695 5696 5697 5698 5698 5699 5699 5699 5699 5700 5700 5700 5700 5700 5700 5700 5699 5699 5698 5698 5697 5696 5696 5695 5694 5693 5692 5691 5691 5690 5689 5687 5686 5684 5682 5680 5678 5675 5673 5670
5684 5685 5686 5687 5688 5689 5690 5690 5691 5691 5692 5692 5692 5693 5693 5693 5693 5693 5693 5692 5692 5691 5691 5690 5690 5690 5689 5688 5688 5687 5686 5686 5685 5684 5682 5681 5679 5677 5675 5673 5670 5667 5664
5676 5677 5678 5679 5680 5681 5681 5682 5682 5683 5683 5684 5684 5685 5685 5685 5686 5686 5685 5685 5685 5685 5684 5684 5683 5683 5683 5682 5682 5681 5681 5680 5679 5678 5676 5675 5673 5671 5669 5666 5664 5661 5658
5669 5670 5670 5671 5672 5672 5673 5673 5674 5674 5675 5675 5676 5677 5677 5677 5678 5678 5678 5678 5678 5678 5677 5677 5677 5676 5676 5676 5675 5675 5674 5673 5672 5671 5670 5668 5666 5664 5662 5660 5657 5654 5651
Wind_Speed
11 11 11 12 12 12 12 12 12 13 13 12 12 12 12 12 12 12 12 13 13 12 12 13 13 14 14 14 14 15 15 15 15 15 15 15 16 16 17 17 17 18 18
11 12 12 12 12 12 12 12 11 11 12 12 13 12 13 13 12 12 12 12 12 12 12 13 13 14 14 14 14 14 14 14 14 15 15 16 16 16 16 16 16 16 17
11 12 12 11 11 12 12 12 11 11 12 12 13 13 13 13 12 12 12 11 12 12 12 13 13 14 14 14 14 13 13 14 15 15 15 16 16 17 17 17 17 17 18
12 12 11 12 12 13 12 11 12 12 12 12 13 13 12 12 12 12 12 12 12 12 12 13 13 13 14 14 13 13 13 14 15 15 16 16 16 16 16 17 18 18 18
11 11 11 12 12 12 11 11 11 11 11 12 12 12 12 12 12 11 12 12 13 13 12 13 13 13 14 13 12 13 13 14 15 16 16 16 16 16 17 17 17 18 19
11 11 11 11 11 12 11 11 11 11 11 11 11 11 12 12 12 12 12 13 14 13 13 13 13 13 12 13 13 14 14 15 15 15 16 16 16 16 16 16 17 17 18
11 11 11 11 11 11 11 11 11 11 11 11 11 11 11 11 12 12 13 13 13 14 13 13 12 12 13 13 13 13 14 14 15 15 15 15 15 16 16 16 17 17 18
12 11 12 11 11 11 11 12 12 12 12 11 11 11 11 12 12 13 13 13 13 13 12 12 13 13 14 14 14 14 14 14 15 15 14 15 15 16 16 17 17 18 18
12 12 12 12 12 12 12 11 11 11 11 11 12 12 12 12 12 12 13 12 12 11 12 12 13 13 14 14 14 14 14 15 14 14 14 15 15 16 16 16 17 18 17
13 13 13 13 12 12 12 12 12 12 12 12 12 13 12 12 13 13 12 11 11 11 11 12 12 12 13 14 14 14 14 14 14 14 14 14 15 16 16 16 17 18 18
15 14 14 13 13 13 13 13 13 13 13 13 13 12 13 13 13 13 12 12 11 11 12 12 12 12 12 13 14 14 14 14 14 14 14 15 16 16 16 17 18 18 19
15 15 15 14 14 14 13 13 13 13 14 14 13 13 13 13 13 13 12 12 12 12 12 12 13 13 13 14 14 14 14 14 14 14 14 15 16 16 17 17 18 19 19
16 16 15 15 15 15 14 14 14 14 15 14 14 14 14 14 13 13 13 12 12 12 12 12 13 14 15 15 15 15 14 14 14 14 15 16 16 17 17 18 19 19 18
18 17 16 16 16 16 15 15 15 15 15 15 14 14 14 14 14 13 13 13 13 13 13 13 14 14 14 15 15 15 14 14 15 15 16 16 17 17 18 18 18 19 19
19 19 19 18 17 16 16 16 16 16 16 16 15 15 15 14 14 13 13 13 14 14 14 15 15 15 15 15 16 15 14 15 15 16 17 17 17 17 17 18 19 20 20
20 20 19 19 18 18 18 17 17 17 16 16 16 17 16 16 15 14 14 15 15 15 15 16 16 16 16 17 16 16 15 15 16 16 17 17 17 17 18 18 19 21 21
21 20 20 19 19 19 18 18 18 18 17 17 17 17 17 17 17 16 16 16 16 16 16 16 16 17 17 17 17 16 16 16 15 16 16 16 16 18 19 19 20 20 21
22 21 21 21 20 20 20 19 18 18 18 19 18 18 18 18 18 18 18 18 18 17 17 17 16 16 16 17 17 16 16 16 16 17 17 17 17 18 19 19 20 20 20
22 22 22 22 22 22 21 20 20 19 19 19 19 19 19 19 19 19 19 19 18 17 17 16 16 17 17 17 17 17 16 16 16 17 17 17 17 18 19 19 20 20 20
24 24 23 23 22 22 21 21 21 20 20 20 19 19 18 18 18 18 18 18 17 17 17 17 17 17 17 17 17 16 16 16 16 16 17 17 18 18 19 19 20 20 21
24 23 23 22 22 21 21 21 21 21 20 20 19 19 18 19 19 18 18 18 19 18 18 18 18 17 17 16 16 16 16 16 16 16 16 16 17 17 18 19 20 21 22
24 24 23 22 22 22 21 21 21 21 21 21 20 20 20 20 20 19 19 19 19 19 19 19 18 17 16 17 16 16 16 16 16 16 16 17 17 18 18 19 20 21 22
25 25 24 23 23 22 22 22 22 22 22 21 22 22 22 22 21 21 21 21 20 20 20 20 19 18 18 17 17 16 16 16 17 17 18 18 18 18 19 20 20 21 22
24 24 24 24 24 24 24 24 24 23 23 23 23 23 23 22 22 22 22 22 21 21 21 21 20 19 18 18 18 18 18 19 19 19 19 19 19 20 20 21 22 23 24
23 23 23 24 24 25 25 25 25 25 25 24 24 24 24 23 23 23 23 22 22 22 21 20 20 19 19 19 19 19 20 20 20 21 21 21 21 22 22 23 23 23 24
23 23 24 24 25 25 26 26 26 26 26 26 25 25 25 25 25 24 24 23 23 22 21 21 20 20 20 20 20 20 21 21 21 21 21 21 22 23 23 24 24 24 25
Wind_Direction
272 273 271 267 268 270 271 270 271 273 275 274 277 276 276 276 276 275 273 271 268 267 266 266 267 266 267 269 271 271 269 267 268 270 271 271 273 273 274 274 274 273 272
273 276 277 270 269 271 275 274 276 276 274 273 274 273 271 273 274 272 272 269 267 264 265 268 269 267 268 269 270 270 268 267 269 270 273 273 273 275 276 276 278 276 276
274 277 277 272 272 277 278 270 272 277 275 275 274 272 272 273 272 268 267 267 267 266 267 268 269 269 269 269 269 269 268 267 269 270 273 274 274 275 277 278 279 279 280
276 275 274 274 274 278 276 274 273 276 276 275 274 274 275 272 267 266 265 268 270 271 273 273 271 271 270 269 268 269 269 270 271 271 273 274 276 277 279 280 281 282 283
274 274 277 278 274 275 275 274 276 277 278 277 276 276 276 273 269 270 268 270 272 275 277 277 276 273 274 272 272 271 272 273 275 274 273 276 278 280 279 280 283 286 286
272 275 278 278 275 275 276 273 274 277 279 277 278 277 274 273 272 273 275 275 274 276 276 277 277 274 276 275 277 276 276 275 276 276 276 277 278 279 278 280 285 289 290
271 270 275 277 275 275 277 274 274 275 277 278 278 277 275 275 276 276 278 278 276 275 276 277 276 273 274 275 278 279 279 279 278 278 279 279 278 278 278 280 284 289 293
269 272 274 275 275 277 277 275 274 275 275 277 278 278 280 280 282 282 279 277 278 278 277 276 275 273 273 274 279 280 282 283 280 279 278 277 276 277 278 280 284 290 292
270 273 275 276 275 275 274 273 274 274 275 276 276 278 280 283 285 285 281 278 278 278 278 278 279 278 274 275 280 281 283 286 283 280 279 278 279 279 280 281 286 292 295
267 270 273 274 274 274 273 273 272 273 278 279 278 277 277 280 284 285 284 280 278 277 277 279 279 279 279 279 282 283 283 285 283 280 281 282 284 284 283 284 288 293 295
265 267 271 272 271 271 271 271 271 272 276 277 277 279 278 279 280 282 282 279 279 277 277 277 278 280 284 284 284 284 285 284 282 281 282 284 285 286 286 288 291 293 295
265 264 265 267 269 268 268 270 270 271 274 276 275 278 281 279 279 279 278 276 278 278 276 278 280 281 282 286 289 287 285 284 283 282 283 284 286 287 287 289 294 296 296
265 267 264 265 267 267 269 270 270 271 274 276 276 278 279 279 277 275 275 274 277 279 279 279 281 284 284 286 289 289 287 284 282 282 283 285 286 288 289 291 295 296 295
264 265 265 265 267 266 267 269 271 273 273 275 275 276 277 276 275 273 273 272 275 278 280 281 282 284 285 286 287 287 289 290 289 286 285 286 286 289 292 293 295 297 295
264 265 267 268 267 264 264 266 268 271 272 273 275 276 276 273 271 270 271 273 275 278 281 283 285 285 287 286 286 286 288 290 292 290 289 287 287 289 291 294 295 299 298
266 267 267 267 267 266 265 265 267 270 273 274 275 275 273 271 268 269 272 276 278 278 280 282 285 287 286 287 287 285 287 289 291 290 290 290 288 289 292 294 296 297 298
265 265 264 263 263 263 264 266 268 269 271 274 272 272 271 271 269 268 270 273 276 278 279 280 283 286 287 288 289 289 289 290 292 293 293 292 291 292 294 296 298 299 300
263 262 262 263 262 261 262 264 268 269 268 270 268 269 270 271 269 268 269 270 273 277 279 279 281 285 287 288 290 290 290 290 289 292 294 294 294 294 296 299 299 299 301
260 259 260 262 263 263 263 265 267 267 268 267 266 268 269 268 267 267 269 271 273 276 279 280 281 282 285 287 287 288 290 292 292 292 294 294 293 294 297 300 302 303 303
259 259 260 261 262 263 262 263 265 266 267 266 266 265 266 266 268 267 269 271 274 276 278 280 282 282 283 285 286 287 288 291 293 293 293 293 294 295 297 300 302 304 304
259 259 260 259 259 260 261 260 262 264 265 266 267 263 262 264 267 269 269 270 273 275 277 280 281 281 283 284 285 286 287 289 291 292 293 295 297 298 299 302 304 305 305
258 258 258 258 258 258 258 258 260 261 263 265 265 264 263 264 266 269 270 271 272 273 275 277 278 279 279 283 286 287 287 288 290 291 293 296 301 302 302 303 306 309 309
258 258 258 257 256 255 255 257 259 261 263 264 265 264 264 265 266 267 270 271 271 272 273 275 276 277 279 281 283 286 288 289 291 292 293 296 299 302 305 305 306 308 310
260 259 258 257 257 256 257 258 258 260 262 265 264 263 264 266 267 268 270 270 270 271 273 275 275 275 276 278 282 286 286 286 288 290 292 294 295 297 301 304 306 308 309
259 259 260 259 260 260 261 260 260 261 263 264 262 262 263 264 266 268 268 266 267 269 272 274 275 276 277 279 280 282 284 285 287 289 291 292 293 295 298 301 304 306 307
259 260 261 261 262 262 263 262 261 262 265 264 261 261 262 264 265 266 267 266 266 268 271 274 275 276 276 277 278 280 283 285 287 289 291 292 294 295 296 299 301 303 305